This is the latest recevied weather packets stored in our database for station/object KO4LFZ. If no packets are shown the sender has not sent any weather packets the latest 1 day(s).
| Time | Temp. | Humidity | Pressure | Rain* | Wind** | Luminosity | Snow |
|---|---|---|---|---|---|---|---|
| 1778093633 | 13.89° C | 78% | 1015 hPa | 0 mm | - | 186 W/m² | - |
| 1778093330 | 13.89° C | 78% | 1014.8 hPa | 0 mm | - | 198 W/m² | - |
| 1778092724 | 13.89° C | 79% | 1015 hPa | 0 mm | - | 166 W/m² | - |
| 1778092111 | 14.44° C | 79% | 1014.9 hPa | 0 mm | - | 197 W/m² | - |
| 1778091808 | 13.89° C | 81% | 1015 hPa | 0 mm | - | 248 W/m² | - |
| 1778088778 | 13.89° C | 80% | 1015.1 hPa | 0 mm | - | 314 W/m² | - |
| 1778088475 | 13.89° C | 83% | 1015 hPa | 0 mm | - | 276 W/m² | - |
| 1778087566 | 13.33° C | 82% | 1015.2 hPa | 0 mm | - | 222 W/m² | - |
| 1778086960 | 13.33° C | 83% | 1015.2 hPa | 0 mm | - | 216 W/m² | - |
| 1778086659 | 13.33° C | 82% | 1015 hPa | 0 mm | - | 303 W/m² | - |
| 1778084250 | 12.22° C | 86% | 1014.9 hPa | 0 mm | - | 301 W/m² | - |
| 1778083639 | 12.22° C | 88% | 1014.7 hPa | 0 mm | - | 237 W/m² | - |
| 1778083335 | 12.22° C | 86% | 1015.1 hPa | 0 mm | - | 227 W/m² | - |
| 1778080078 | 11.11° C | 89% | 1015 hPa | 0 mm | - | 185 W/m² | - |
| 1778078563 | 11.11° C | 90% | 1014.4 hPa | 0 mm | - | 261 W/m² | - |
| 1778077354 | 10.56° C | 89% | 1014.1 hPa | 0 mm | - | 239 W/m² | - |
| 1778076750 | 10.56° C | 89% | 1014.2 hPa | 0 mm | - | 147 W/m² | - |
| 1778076144 | 10° C | 89% | 1013.9 hPa | 0 mm | - | 216 W/m² | - |
| 1778075537 | 10° C | 91% | 1014.1 hPa | 0 mm | - | 177 W/m² | - |
| 1778075234 | 10° C | 91% | 1013.6 hPa | 0 mm | - | 211 W/m² | - |
| 1778074930 | 10° C | 92% | 1013.4 hPa | 0 mm | - | 243 W/m² | - |
| 1778073718 | 9.44° C | 93% | 1013.4 hPa | 0 mm | - | 103 W/m² | - |
| 1778072506 | 8.89° C | 94% | 1013.2 hPa | 0 mm | - | 138 W/m² | - |
| 1778071297 | 8.89° C | 94% | 1013 hPa | 0 mm | - | 47 W/m² | - |
| 1778070693 | 8.33° C | 95% | 1012.5 hPa | 0 mm | - | 53 W/m² | - |
* Rain latest hour (hover to see other rain measurements)
** Current wind speed in m/s (hover to see current wind gust speed)